User: anonymous   Login
Location: Newark
(44.5208°N, 2.4294°E)
Time: 07:20:11
(UTC+00:00)
Language:

Envisat - Orbit

View from above orbital plane
View from above orbital plane
View from above satellite
View from above satellite

Ground track
Ground track

The orbit data is extracted from the following two-line orbital elements,

1 27386U 02009A   19291.15947728 -.00000006  00000-0  11529-4 0  9991
2 27386  98.1451 305.9461 0001175  93.1269 315.5211 14.37959959923652
Epoch (UTC): 18 October 2019 03:49:38
Eccentricity: 0.0001175
inclination: 98.1451°
perigee height: 764 km
apogee height: 766 km
right ascension of ascending node: 305.9461°
argument of perigee: 93.1269°
revolutions per day: 14.37959959
mean anomaly at epoch: 315.5211°
orbit number at epoch: 92365

The dashed part of the orbit path shows where the satellite is in the earth's shadow,  

DLR